Location: Ripley
(48.3812°N, 115.4473°W)
Time: 12:39:17
(UTC+00:00)

JY1SAT - Visible Passes

Search period start: 28 June 2022 00:00
Search period end: 08 July 2022 00:00
Orbit: 566 x 585 km, 97.6° (Epoch: 27 June)

Date Brightness Start Highest point End Pass type
(mag) Time Alt. Az. Time Alt. Az. Time Alt. Az.
28 Jun ? 05:37:58 11° SSW 05:41:41 38° W 05:45:35 10° NNW visible
29 Jun ? 05:41:38 11° SSW 05:45:20 35° W 05:49:10 10° NNW visible
30 Jun ? 05:45:18 10° SSW 05:48:59 32° W 05:52:44 10° NNW visible
01 Jul ? 05:48:58 10° SSW 05:52:36 30° W 05:56:18 10° NNW visible
02 Jul ? 05:52:42 10° SSW 05:56:15 27° W 05:59:50 10° NW visible
03 Jul ? 04:20:50 10° SE 04:24:35 34° ENE 04:28:21 10° N visible
03 Jul ? 05:56:26 10° SSW 05:59:53 25° W 06:03:22 10° NW visible
04 Jul ? 04:24:21 10° SE 04:28:11 37° ENE 04:32:01 10° N visible
04 Jul ? 06:00:12 10° SSW 06:03:32 23° W 06:06:53 10° NW visible
05 Jul ? 04:27:53 10° SE 04:31:46 40° ENE 04:35:40 10° N visible
05 Jul ? 06:03:58 10° SW 06:07:10 21° W 06:10:23 10° NW visible
06 Jul ? 04:31:25 10° SE 04:35:21 44° ENE 04:39:18 10° N visible
06 Jul ? 06:07:45 10° SW 06:10:48 20° W 06:13:53 10° NW visible
07 Jul ? 04:34:57 10° SE 04:38:57 47° ENE 04:42:56 10° N visible
07 Jul ? 06:11:33 10° SW 06:14:27 18° W 06:17:21 10° NW visible
